Tracking 28790 objects as of 19-Apr-2024
HD Live streaming from Space Station
objects crossing your sky now

THORAD AGENA D DEB

Track THORAD AGENA D DEB now!
10-day predictions


NORAD ID: 21721
Int'l Code: 1970-025QG
Perigee: 1,008.1 km
Apogee: 1,015.7 km
Inclination: 100.1 °
Period: 105.2 minutes
Semi major axis: 7382 km
RCS: 0.015 m2 (small)
Launch date: April 8, 1970
Source: United States (US)
Launch site: AIR FORCE WESTERN TEST RANGE (AFWTR)

Note: This is SATELLITE DEBRIS
Your satellite tracking list
Your tracking list is empty




NASA's NSSDC Master Catalog

Two Line Element Set (TLE):
1 21721U 70025QG  24109.22141622  .00002187  00000-0  26053-2 0  9999
2 21721 100.0915  11.8631 0005154  99.6855  52.0133 13.68566382616025
Source of the keplerian elements: AFSPC